Location: Allos
(44.2333°N, 6.6333°E)
Time: 21:34:29
(UTC+00:00)

Cosmos 1821 Rocket - Pass Details

Date: 18 April 2021
Orbit: 946 x 1003 km, 82.9° (Epoch: 16 May)

Event Time Altitude Azimuth Distance (km) Brightness Sun altitude
Rises 03:30:13 0° 338° (NNW) 3,701 7.1 -13.1°
Reaches altitude 10° 03:33:21 10° 324° (NW) 2,757 6.3 -12.6°
Maximum altitude 03:37:51 21° 278° (W) 2,079 5.3 -11.9°
Enters shadow 03:40:58 15° 243° (WSW) 2,433 5.4 -11.4°
